Weather History for Arlington, TX

Change the Weather History Date:

Friday, February 1, 2013

  Actual Average (KRBD) Record (KRBD)
Temperature  
Mean Temperature 44 °F -  
Max Temperature 57 °F 55 °F 84 °F (1997)
Min Temperature 30 °F 37 °F 15 °F (2011)
Degree Days  
Heating Degree Days 22    
Moisture  
Dew Point 28 °F    
Average Humidity 51    
Maximum Humidity 66    
Minimum Humidity 36    
Precipitation  
Precipitation 0.00 in - - ()
Sea Level Pressure  
Sea Level Pressure 30.28 in    
Wind  
Wind Speed 9 mph (East)    
Max Wind Speed 14 mph    
Max Gust Speed -    
Visibility 10 miles    
Events      
Averages and records for this station are not official NWS values.
T = Trace of Precipitation, MM = Missing Value Source: NWS Daily Summary

Daily Weather History Graph

Daily Weather History Graph

Search for Another Location

Airport:

Trip Planner

Search our weather history database for the weather conditions in past years. The results will help you decide how hot, cold, wet, or windy it might be!

Date:

Astronomy

Feb. 01, 2013 Rise Set
Actual Time 7:22 AM CST 6:01 PM CST
Civil Twilight 6:57 AM CST 6:27 PM CST
Nautical Twilight 6:27 AM CST 6:56 PM CST
Astronomical Twilight 5:58 AM CST 7:25 PM CST
Moon 11:45 PM CST (2/1) 10:19 AM CST (2/1)
Length of Visible Light 11h 30m
Length of Day
10h 38m
Waning Gibbous, 70% of the Moon is Illuminated
Feb 1
Waning Gibbous
Feb 3
Last Quarter
Feb 10
New
Feb 17
First Quarter
Feb 25
Full

Hourly Weather History & Observations

Time (CST) Temp. Windchill Dew Point Humidity Pressure Visibility Wind Dir Wind Speed Gust Speed Precip Events Conditions
12:53 AM 42.1 °F 35.7 °F 26.1 °F 53% 30.32 in 10.0 mi North 11.5 mph - N/A   Clear
1:53 AM 39.0 °F 31.0 °F 23.0 °F 53% 30.34 in 10.0 mi North 13.8 mph - N/A   Clear
2:53 AM 37.0 °F 29.3 °F 21.0 °F 52% 30.35 in 10.0 mi NNE 11.5 mph - N/A   Clear
3:53 AM 35.1 °F 27.9 °F 24.1 °F 64% 30.36 in 10.0 mi North 9.2 mph - N/A   Clear
4:53 AM 34.0 °F 26.0 °F 19.9 °F 56% 30.37 in 10.0 mi North 10.4 mph - N/A   Clear
6:53 AM 30.9 °F 22.8 °F 18.0 °F 59% 30.38 in 10.0 mi North 9.2 mph - N/A   Clear
7:53 AM 30.9 °F 23.5 °F 19.0 °F 61% 30.40 in 10.0 mi North 8.1 mph - N/A   Clear
8:53 AM 34.0 °F 27.2 °F 18.0 °F 52% 30.40 in 10.0 mi NNE 8.1 mph - N/A   Clear
9:53 AM 39.0 °F 34.0 °F 21.0 °F 49% 30.40 in 10.0 mi NE 6.9 mph - N/A   Clear
10:53 AM 43.0 °F 40.3 °F 23.0 °F 45% 30.37 in 10.0 mi NNE 4.6 mph - N/A   Clear
11:53 AM 48.0 °F - 27.0 °F 44% 30.35 in 10.0 mi SE 5.8 mph - N/A   Clear
12:53 PM 51.1 °F - 28.9 °F 43% 30.31 in 10.0 mi SSE 5.8 mph - N/A   Clear
1:53 PM 54.0 °F - 30.0 °F 40% 30.27 in 10.0 mi ESE 9.2 mph - N/A   Clear
2:53 PM 55.0 °F - 30.0 °F 38% 30.25 in 10.0 mi Variable 6.9 mph - N/A   Clear
3:53 PM 57.9 °F - 30.9 °F 36% 30.22 in 10.0 mi SE 8.1 mph - N/A   Clear
4:53 PM 57.9 °F - 30.9 °F 36% 30.19 in 10.0 mi SE 12.7 mph - N/A   Clear
5:53 PM 55.9 °F - 33.1 °F 42% 30.18 in 10.0 mi SE 6.9 mph - N/A   Clear
6:53 PM 52.0 °F - 33.1 °F 49% 30.17 in 10.0 mi SE 5.8 mph - N/A   Clear
7:53 PM 50.0 °F - 34.0 °F 54% 30.17 in 10.0 mi East 3.5 mph - N/A   Clear
8:53 PM 46.0 °F - 35.1 °F 66% 30.17 in 10.0 mi Calm Calm - N/A   Clear
9:53 PM 52.0 °F - 37.0 °F 57% 30.17 in 10.0 mi SSE 8.1 mph - N/A   Clear
10:53 PM 48.9 °F - 37.0 °F 64% 30.18 in 10.0 mi South 4.6 mph - N/A   Clear
11:53 PM 51.1 °F - 37.9 °F 61% 30.16 in 10.0 mi South 8.1 mph - N/A   Clear